Regional Weather Roundup
Issued by NWS Goodland, KS

Home | Current Version | Previous Version | Text Only | Print | Product List | Glossary Off
Versions: 1 2 3 4 5 6 7 8 9 10 11 12 13 14 15 16 17 18 19 20 21 22 23 24 25 26 27 28 29 30 31 32 33 34 35 36 37 38 39 40 41 42 43 44 45 46 47 48 49 50

000
ASUS43 KGLD 210659
RWRGLD

GOODLAND FORECAST AREA HOURLY WEATHER ROUNDUP
NATIONAL WEATHER SERVICE GOODLAND KS
100 AM MDT MON APR 21 2014

...OFFICIAL OBSERVATIONS...

CITY           SKY/WX    TMP DP  RH WIND       PRES   REMARKS
GOODLAND KS    CLEAR     47  44  90 W6        30.03R
HILL CITY KS   CLOUDY    58  54  86 W7        29.98R
IMPERIAL NEB   CLEAR     53  41  63 N13       30.03R
MCCOOK NEB     PTCLDY    55  53  93 CALM      30.00R
AKRON CO       CLEAR     48  38  68 N13       30.10R
BURLINGTON CO  CLEAR     46  40  79 W9        30.05R
LIMON CO       CLEAR     41  35  79 N6        30.14R
$$

...UNOFFICIAL OBSERVATIONS...

CITY           SKY/WX    TMP DP  RH WIND       PRES   REMARKS
COLBY KS       CLEAR     52  52 100 CALM      30.01S FOG
LENORA KS        N/A     56  32  40 SW12        N/A
LEOTI KS         N/A     54  32  43 CALM        N/A
NORTON KS      CLEAR     52  50  93 SW7       29.97S
SHARON SPRINGS   N/A     48  42  81 CALM        N/A
WAKEENEY KS      N/A     60  57  88 MISG        N/A
KIT CARSON CO    N/A     47  40  78 MISG        N/A
$$



USA.gov is the U.S. government's official web portal to all federal, state and local government web resources and services.